User: anonymous   Login
Location: M.A.R.S.Observatory
(35.4031°N, 81.5481°W)
Time: 04:32:14
(UTC-04:00)
Language:

SL-8 R/B - Orbit

View from above orbital plane
View from above orbital plane
View from above satellite
View from above satellite

Ground track
Ground track

The orbit data is extracted from the following two-line orbital elements,

1 33066U 08031G   17147.70357980 -.00000086 +00000-0 +18419-4 0  9991
2 33066 048.4429 206.2099 0007305 025.6124 128.8970 14.69537849479746
Epoch (UTC): 27 May 2017 16:53:09
Eccentricity: 0.0007305
inclination: 48.4429°
perigee height: 657 km
apogee height: 667 km
right ascension of ascending node: 206.2099°
argument of perigee: 25.6124°
revolutions per day: 14.69537849
mean anomaly at epoch: 128.8970°
orbit number at epoch: 47974

The dashed part of the orbit path shows where the satellite is in the earth's shadow,  

DLR